Regional Weather Roundup
Issued by NWS

Home | Current Version | Previous Version | Text Only | Print | Product List | Glossary On
Versions: 1 2 3 4 5 6 7 8 9 10 11 12 13 14 15 16 17 18 19 20 21 22 23 24 25 26 27 28 29 30 31 32 33 34 35 36 37 38 39 40 41 42 43 44 45 46 47 48 49 50
545
ASUS43 KMKX 140620
RWRWI

WISCONSIN REGIONAL WEATHER ROUNDUP
NATIONAL WEATHER SERVICE MILWAUKEE/SULLIVAN WI
100 AM CDT WED APR 14 2021

NOTE: "FAIR" INDICATES FEW OR NO CLOUDS BELOW 12,000 FEET WITH NO
SIGNIFICANT WEATHER AND/OR OBSTRUCTIONS TO VISIBILITY.

WIZ001-002-006>008-014>016-023>028-140700-
NORTHWEST WISCONSIN

CITY           SKY/WX    TMP DP  RH WIND       PRES   REMARKS
SUPERIOR ARPT  CLOUDY    33  30  90 SW5       30.04S WCI  28
6HR MIN TEMP:  33; 6HR MAX TEMP:  36;

ASHLAND        CLOUDY    34  28  79 SW3       30.05R
6HR MIN TEMP:  33; 6HR MAX TEMP:  36; 6HR PCP: TRACE;

HAYWARD        CLOUDY    32  25  75 W3        30.04R
6HR MIN TEMP:  32; 6HR MAX TEMP:  34;

SIREN          CLOUDY    31  28  88 W7        30.05S WCI  24
6HR MIN TEMP:  31; 6HR MAX TEMP:  33;

CUMBERLAND     FLURRIES  30  27  86 SW6       30.05S WCI  24
RICE LAKE      FLURRIES  31  28  90 W5        30.07S WCI  26
6HR MIN TEMP:  31; 6HR MAX TEMP:  33;

CHETEK         FLURRIES  31  27  86 W3        30.06S
6HR MIN TEMP:  31; 6HR MAX TEMP:  33;

LADYSMITH      MIX PCPN  32  28  85 SW6       30.06R WCI  26
6HR MIN TEMP:  32; 6HR MAX TEMP:  34;

EAU CLAIRE     FLURRIES  32  26  78 W12       30.06S WCI  23
6HR MIN TEMP:  32; 6HR MAX TEMP:  35; 6HR PCP: TRACE;

MENOMONIE      FLURRIES  30  25  81 SW6       30.08S WCI  24
6HR MIN TEMP:  29; 6HR MAX TEMP:  32;

NEW RICHMOND   CLOUDY    30  27  88 W6        30.07S WCI  24
6HR MIN TEMP:  29; 6HR MAX TEMP:  34;

OSCEOLA        CLOUDY    31  29  94 W7        30.10S WCI  24
6HR MIN TEMP:  31; 6HR MAX TEMP:  34; 6HR PCP:  0.01;

$$

WIZ003>005-009-010-017-018-140700-
NORTH CENTRAL WISCONSIN

CITY           SKY/WX    TMP DP  RH WIND       PRES   REMARKS
MANITOWISH WTR CLOUDY    30  30 100 SW3       30.01S
6HR MIN TEMP:  29; 6HR MAX TEMP:  32;

ARBOR VITAE    CLOUDY    32  22  67 W5        30.01S WCI  27
6HR MIN TEMP:  32; 6HR MAX TEMP:  33;

WOODRUFF       CLOUDY    32  22  67 W5        30.01S WCI  27
6HR MIN TEMP:  32; 6HR MAX TEMP:  33;

RHINELANDER    CLOUDY    31  27  85 W5        30.03S WCI  26
6HR MIN TEMP:  30; 6HR MAX TEMP:  32; 6HR PCP:  0.01;

EAGLE RIVER    CLOUDY    31  29  92 W5        30.01S WCI  26
6HR MIN TEMP:  29; 6HR MAX TEMP:  32;

LAND O LAKES   CLOUDY    32  29  91 CALM      30.02S
6HR MIN TEMP:  31; 6HR MAX TEMP:  34;

PHILLIPS       CLOUDY    30  29  96 SW5       30.02S WCI  25
6HR MIN TEMP:  30; 6HR MAX TEMP:  32;

TOMAHAWK       CLOUDY    30  27  90 CALM      30.04S
6HR MIN TEMP:  29; 6HR MAX TEMP:  32;

MEDFORD        CLOUDY    30  27  86 SW5       30.03S WCI  25
6HR MIN TEMP:  30; 6HR MAX TEMP:  31;

MERRILL        CLOUDY    32  29  90 SW5       30.04S WCI  27
6HR MIN TEMP:  31; 6HR MAX TEMP:  33;

$$

WIZ029-030-035-036-043>047-140700-
CENTRAL WISCONSIN

CITY           SKY/WX    TMP DP  RH WIND       PRES   REMARKS
WAUSAU         CLOUDY    34  25  69 SW6       30.04S WCI  29
6HR MIN TEMP:  33; 6HR MAX TEMP:  35; 6HR PCP: TRACE;

MOSINEE        CLOUDY    32  27  80 W7        30.06F WCI  26
MARSHFIELD     CLOUDY    32  24  72 SW7       30.05F WCI  26
6HR MIN TEMP:  31; 6HR MAX TEMP:  33;

STEVENS POINT  CLOUDY    32  23  70 W5        30.08S WCI  27
6HR MIN TEMP:  32; 6HR MAX TEMP:  34;

WAUPACA        CLOUDY    37  24  61 W6        30.09S WCI  32
6HR MIN TEMP:  37; 6HR MAX TEMP:  42;

WAUTOMA        CLOUDY    35  24  64 W3        30.09F
6HR MIN TEMP:  35; 6HR MAX TEMP:  41;

WISC RAPIDS    CLOUDY    34  25  69 W3        30.09S
6HR MIN TEMP:  34; 6HR MAX TEMP:  37;

CAMP DOUGLAS   CLOUDY    35  25  65 W6        30.09S WCI  30
6HR MIN TEMP:  35; 6HR MAX TEMP:  39;

$$

WIZ011>013-019>022-031-037>040-048>050-140700-
NORTHEAST WISCONSIN

CITY           SKY/WX    TMP DP  RH WIND       PRES   REMARKS
ANTIGO         CLOUDY    30  28  92 W7        30.04S WCI  23
6HR MIN TEMP:  30; 6HR MAX TEMP:  31;

SHAWANO        CLOUDY    37  29  73 W3        30.07S
6HR MIN TEMP:  36; 6HR MAX TEMP:  42;

OCONTO         CLOUDY    35  28  74 W6        30.07F WCI  30
6HR MIN TEMP:  35; 6HR MAX TEMP:  41;

STURGEON BAY   CLOUDY    37  29  72 W8        30.07F WCI  31
6HR MIN TEMP:  37; 6HR MAX TEMP:  42;

GREEN BAY      CLOUDY    37  25  61 W9        30.08F WCI  30
6HR MIN TEMP:  37; 6HR MAX TEMP:  43;

MANITOWOC      CLOUDY    38  29  70 NW8       30.08F WCI  32
6HR MIN TEMP:  38; 6HR MAX TEMP:  44; 6HR PCP: TRACE;

APPLETON       CLOUDY    34  19  55 W7        30.07S WCI  28
CLINTONVILLE   CLOUDY    35  25  67 W6        30.08S WCI  30
6HR MIN TEMP:  35; 6HR MAX TEMP:  40;

OSHKOSH        CLOUDY    37  27  67 W6        30.08F WCI  32
6HR MIN TEMP:  37; 6HR MAX TEMP:  43;

$$

WIZ032>034-041-042-053>061-140700-
SOUTHWEST WISCONSIN

CITY           SKY/WX    TMP DP  RH WIND       PRES   REMARKS
LA CROSSE      CLOUDY    37  27  67 NW12      30.11S WCI  29
6HR MIN TEMP:  35; 6HR MAX TEMP:  39;

SPARTA           N/A     35  26  71 W5        30.10S WCI  31
6HR MIN TEMP:  35; 6HR MAX TEMP:  38;

VIROQUA        CLOUDY    34  27  77 SW5       30.08F WCI  29
6HR MIN TEMP:  34; 6HR MAX TEMP:  37;

BOSCOBEL       CLOUDY    34  23  64 SW3       30.12F
6HR MIN TEMP:  33; 6HR MAX TEMP:  44;

PRAIRIE DU CHI MOCLDY    36  22  55 SW6       30.13S WCI  31
6HR MIN TEMP:  36; 6HR MAX TEMP:  42;

PLATTEVILLE    CLEAR     32  24  72 SW7       30.13S WCI  26
6HR MIN TEMP:  32; 6HR MAX TEMP:  45;

$$

WIZ056-057-062-063-064-067-068-140700-
SOUTH CENTRAL WISCONSIN

CITY           SKY/WX    TMP DP  RH WIND       PRES   REMARKS
REEDSBURG      CLOUDY    36  23  60 SW5       30.10S WCI  32
6HR MIN TEMP:  36; 6HR MAX TEMP:  42;

BARABOO/DELLS  CLOUDY    34  23  64 W3        30.10S
6HR MIN TEMP:  34; 6HR MAX TEMP:  41;

LONE ROCK      MOCLDY    33  25  72 CALM      30.12S
6HR MIN TEMP:  33; 6HR MAX TEMP:  44;

MINERAL POINT  CLEAR     34  23  64 W3        30.11S
MADISON        PTCLDY    36  23  59 CALM      30.09F
6HR MIN TEMP:  36; 6HR MAX TEMP:  47;

MIDDLETON      CLEAR     33  24  69 CALM      30.10S
6HR MIN TEMP:  34; 6HR MAX TEMP:  46;

WATERTOWN      CLEAR     36  26  65 W5        30.09F WCI  32
6HR MIN TEMP:  36; 6HR MAX TEMP:  46;

MONROE         CLEAR     33  22  64 W9        30.11S WCI  26
6HR MIN TEMP:  34; 6HR MAX TEMP:  47;

JANESVILLE     CLEAR     34  27  75 SW6       30.12S WCI  29
$$

WIZ051-052-058>065-066-070>072-140700-
SOUTHEAST WISCONSIN

CITY           SKY/WX    TMP DP  RH WIND       PRES   REMARKS
MILWAUKEE      CLOUDY    45  22  40 W9G22     30.09F
6HR MIN TEMP:  45; 6HR MAX TEMP:  50;

WAUKESHA       CLEAR     36  23  60 W8        30.10S WCI  29
MILWAUKEE/TIMM PTCLDY    37  21  52 W10       30.10S WCI  30
RACINE         CLOUDY    44  26  49 W7        30.11F
6HR MIN TEMP:  44; 6HR MAX TEMP:  49;

KENOSHA        MOCLDY    41  25  53 W8        30.11S
6HR MIN TEMP:  41; 6HR MAX TEMP:  50;

FOND DU LAC    CLOUDY    39  23  52 W9        30.08F WCI  33
6HR MIN TEMP:  39; 6HR MAX TEMP:  45;

SHEBOYGAN      CLOUDY    40  29  64 NW6       30.07F
6HR MIN TEMP:  40; 6HR MAX TEMP:  45;

WEST BEND      CLOUDY    37  27  65 W7        30.08S WCI  32
JUNEAU         CLOUDY    37  23  56 W5        30.10S WCI  33
6HR MIN TEMP:  37; 6HR MAX TEMP:  44;

$$

LSZ147-162-140700-
LAKE SUPERIOR

STATION/POSITION TIME  TEMP    WIND        PRES    WAVE
                       AIR SEA DIR/SP/G            HT/PER
                 (UTC) (F)     (DEG/KT/KT) (MB)    (FT/S)
DEVILS ISLAND    0600   33     160/  4/  5 1018.0S
PORT WING        0530   34     200/  3/  6 1016.9S
SAXON HARBOR     0530   33     200/  2/  3 1016.9S
$$

LMZ867-665-643>646-140700-
LAKE MICHIGAN

STATION/POSITION TIME  TEMP    WIND        PRES    WAVE




USA.gov is the U.S. government's official web portal to all federal, state and local government web resources and services.